Regional Weather Roundup
Issued by NWS Bismarck, ND

Current Version | Previous Version | Text Only | Print | Product List | Glossary On
Versions: 1 2 3 4 5 6 7 8 9 10 11 12 13 14 15 16 17 18 19 20 21 22 23 24 25 26 27 28 29 30 31 32 33 34 35 36 37 38 39 40 41 42 43 44 45 46 47 48 49 50
784
ASUS43 KBIS 180710
RWRBIS

NWR BROADCAST TEXT
NATIONAL WEATHER SERVICE BISMARCK ND
200 AM CDT WED SEP 18 2019

NOTE: "FAIR" INDICATES FEW OR NO CLOUDS BELOW 12,000 FEET WITH NO
SIGNIFICANT WEATHER AND/OR OBSTRUCTIONS TO VISIBILITY.


CITY           SKY/WX    TMP DP  RH WIND       PRES   REMARKS
WILLISTON      CLOUDY    65  61  87 SW13      29.55S
MINOT          CLEAR     65  59  81 SE6       29.50R
MINOT AFB      NOT AVBL
BISMARCK       PTCLDY    64  52  64 W10       29.66R
DICKINSON      CLEAR     56  51  84 W21G30    29.66R
GARRISON         N/A     62  56  80 W18G30    29.57R
HETTINGER ARPT PTCLDY    51  46  83 SW12      29.76R
JAMESTOWN      CLEAR     71  67  87 S9        29.61R
CARRINGTON     FAIR      70  63  78 S7        29.60R
HAZEN          FAIR      61  55  82 SW14      29.64R
MANDAN         FAIR      59  54  82 W14       29.65R
OAKES          CLOUDY    68  68 100 S8G17     29.68R FOG
RUGBY          FAIR      68  64  88 S8        29.52F
STANLEY        FAIR      59  59 100 SW10G16   29.56R
TIOGA          FAIR      57  57 100 S15G22    29.56R
WATFORD CITY   CLOUDY    59  55  88 SW25G38   29.59R
$$

CITY           SKY/WX    TMP DP  RH WIND       PRES   REMARKS
GRAND FORKS    PTCLDY    76  68  76 S15       29.55F
GRAND FORKS AF NOT AVBL
DEVILS LAKE    CLOUDY    72  67  84 S15       29.56S
FARGO          PTCLDY    76  68  76 S16G29    29.61F
CANDO          FAIR      68  68 100 S9G15     29.55F
CAVALIER       FAIR      73  68  83 S10       29.51F
GRAFTON        FAIR      73  70  88 S14       29.56S
GWINNER        CLOUDY    72  70  94 S16G23    29.68R
LANGDON        FAIR      72  68  88 S15       29.55F
ROLLA          FAIR      66  66 100 S5        29.53F
WALHALLA       FAIR      72  72 100 SE8       29.52S
$$

CITY           SKY/WX    TMP DP  RH WIND       PRES   REMARKS
ABERDEEN       CLOUDY    66  62  87 S6        29.71R
MOBRIDGE       PTCLDY    65  55  70 W10       29.71R
BUFFALO          N/A     55  49  80 W18       29.78R
RAPID CITY     CLEAR     58  40  51 SW6       29.90R
GLASGOW        CLOUDY    58  52  80 NW18G31   29.73R
SIDNEY           N/A    N/A N/A N/A MISG        N/A  THUNDER
WOLF POINT     CLOUDY    63  56  78 W15       29.66R
GLENDIVE       RAIN      56  55  97 W32G41    29.66F FOG
MILES CITY     CLOUDY    56  52  86 W21       29.82R
BAKER          CLOUDY    55  53  93 W22G30    29.76R
$$

CITY           SKY/WX    TMP DP  RH WIND       PRES   REMARKS
BILLINGS       PTCLDY    55  42  61 SW16      29.94R
GREAT FALLS    CLEAR     47  35  63 S13       29.90S
REGINA         CLOUDY    63  55  77 NW12G18   29.57F
ESTEVAN        CLEAR     63  59  88 NE5       29.44F
$$





USA.gov is the U.S. government's official web portal to all federal, state and local government web resources and services.